Kuchera_Ratio
0.0 0.0 0.0 0.0 0.0 0.0 0.0 0.0 0.0 0.0 0.0 0.0 0.0 0.0 0.0 0.0 0.0 0.0 0.0 0.0 0.0 0.0 0.0 0.0 0.0 0.0 0.0 0.0 0.0 0.0 0.0 0.0 0.0 0.0 0.0 0.0 0.0 0.0
0.0 0.0 0.0 0.0 0.0 0.0 0.0 0.0 0.0 0.0 0.0 0.0 0.0 0.0 0.0 0.0 0.0 0.0 0.0 0.0 0.0 0.0 0.0 0.0 0.0 0.0 0.0 0.0 0.0 0.0 0.0 0.0 0.0 0.0 0.0 0.0 0.0 0.0
0.0 0.0 0.0 0.0 0.0 0.0 0.0 0.0 0.0 0.0 0.0 0.0 0.0 0.0 0.0 0.0 0.0 0.0 0.0 0.0 0.0 0.0 0.0 0.0 0.0 0.0 0.0 0.0 0.0 0.0 0.0 0.0 0.0 0.0 0.0 0.0 0.0 0.0
0.0 0.0 0.0 0.0 0.0 0.0 0.0 0.0 0.0 0.0 0.0 0.0 0.0 0.0 0.0 0.0 0.0 0.0 0.0 0.0 0.0 0.0 0.0 0.0 0.0 0.0 0.0 0.0 0.0 0.0 0.0 0.0 0.0 0.0 0.0 0.0 0.0 0.0
0.0 0.0 0.0 0.0 0.0 0.0 0.0 0.0 0.0 0.0 0.0 0.0 0.0 0.0 0.0 0.0 0.0 0.0 0.0 0.0 0.0 0.0 0.0 0.0 0.0 0.0 0.0 0.0 0.0 0.0 0.0 0.0 0.0 0.0 0.0 0.0 0.0 0.0
0.0 0.0 0.0 0.0 0.0 0.0 0.0 0.0 0.0 0.0 0.0 0.0 0.0 0.0 0.0 0.0 0.0 0.0 0.0 0.0 0.0 0.0 0.0 0.0 0.0 0.0 0.0 0.0 0.0 0.0 0.0 0.0 0.0 0.0 0.0 0.0 0.0 0.0
0.0 0.0 0.0 0.0 0.0 0.0 0.0 0.0 0.0 0.0 0.0 0.0 0.0 0.0 0.0 0.0 0.0 0.0 0.0 0.0 0.0 0.0 0.0 0.0 0.0 0.0 0.0 0.0 0.0 0.0 0.0 0.0 0.0 0.0 0.0 0.0 0.0 0.0
1.2 0.0 0.0 0.0 0.0 0.0 0.0 0.0 0.0 0.0 1.2 1.7 0.0 0.0 0.0 0.0 0.0 0.0 0.0 0.0 0.0 0.0 0.0 0.0 0.0 0.0 0.0 0.0 0.0 0.0 0.0 0.0 0.0 0.0 0.0 0.0 0.0 0.0
2.0 1.1 0.0 0.0 0.0 0.0 0.0 0.0 0.0 0.0 0.0 0.0 1.6 1.7 0.0 0.0 0.0 0.0 0.0 0.0 0.0 0.0 0.0 0.0 0.0 0.0 0.0 0.0 0.0 0.0 0.0 0.0 0.0 0.0 0.0 0.0 0.0 0.0
2.7 1.8 1.0 0.0 0.0 0.0 1.0 3.3 3.4 1.6 0.0 0.0 0.0 0.0 0.0 0.0 0.0 0.0 0.0 0.0 0.0 0.0 0.0 0.0 0.0 0.0 0.0 0.0 0.0 0.0 0.0 0.0 0.0 0.0 0.0 0.0 0.0 0.0
1.3 0.6 0.7 0.5 0.0 0.0 1.1 3.9 4.6 2.7 0.0 0.0 0.0 0.0 0.0 0.0 0.0 0.0 0.4 1.7 1.2 0.0 0.0 0.0 0.0 0.0 0.0 0.0 0.0 0.0 0.0 0.0 0.0 0.0 0.0 0.0 0.0 0.0
4.2 1.9 0.0 0.0 0.0 0.0 1.3 4.3 8.3 6.0 3.9 3.4 3.8 3.7 0.4 0.6 0.0 0.0 0.8 2.7 2.4 1.1 0.0 0.0 0.0 0.0 0.0 0.0 0.0 0.0 0.0 0.0 0.0 0.0 0.0 0.0 0.0 0.0
5.7 5.2 2.9 0.0 0.0 0.0 0.0 1.7 3.9 0.7 1.6 4.6 5.7 6.1 5.8 4.8 3.5 3.0 2.7 2.7 3.5 2.7 0.0 0.0 0.3 0.0 0.3 1.3 0.6 0.0 0.0 0.0 0.0 0.0 0.0 0.0 0.0 0.0
6.2 5.2 4.5 0.1 0.0 0.0 0.0 0.0 0.0 0.0 4.3 7.5 9.4 9.7 8.4 6.1 5.0 4.6 4.1 3.5 1.0 2.4 0.0 0.0 0.9 0.4 1.1 3.3 2.8 1.8 0.0 0.0 0.0 0.0 0.0 0.0 0.0 0.0
3.5 2.3 0.6 0.7 0.6 1.3 0.4 0.0 0.0 3.1 6.5 10.4 11.3 10.3 8.5 7.4 6.4 5.8 4.1 4.4 5.9 3.5 1.2 1.8 1.6 0.8 0.7 0.9 4.1 3.1 3.4 1.7 0.0 0.0 0.7 0.0 0.0 1.1
5.5 8.6 4.8 2.8 2.3 3.0 3.9 4.7 6.0 7.2 8.0 9.5 10.0 9.2 9.3 8.9 8.6 8.7 7.4 5.9 6.3 5.3 4.6 3.7 3.4 2.4 2.9 3.0 3.0 3.9 1.8 5.2 2.3 1.2 1.1 1.6 2.5 1.0
4.7 8.1 10.5 11.2 11.4 10.4 9.5 9.4 8.8 7.5 9.3 8.4 9.5 10.3 10.2 10.7 11.0 9.8 7.4 7.3 8.3 7.1 5.8 6.9 6.2 4.1 1.8 3.6 6.1 4.6 3.9 5.6 2.1 2.3 3.1 4.7 4.0 2.9
7.5 11.8 12.1 11.8 12.0 11.7 11.6 11.2 11.1 9.4 9.4 9.7 9.7 10.3 11.7 11.4 12.2 11.9 8.3 8.7 9.5 7.9 7.2 9.0 8.6 8.9 8.5 7.6 2.5 4.7 4.8 5.0 4.5 4.3 3.3 5.9 7.7 5.3
11.9 12.1 12.4 11.7 12.0 11.6 12.0 12.2 12.2 11.9 11.7 10.6 10.4 10.4 11.3 12.3 11.2 11.2 11.2 9.3 9.3 8.2 7.4 7.4 8.7 8.0 10.3 10.9 9.9 3.9 5.2 6.1 7.0 7.4 6.6 6.2 7.0 7.5
12.4 12.7 12.6 12.1 12.1 12.2 12.3 12.2 11.5 11.4 11.7 11.6 12.1 11.4 11.3 12.4 13.1 14.1 12.3 11.9 10.1 8.6 8.0 9.3 9.5 7.9 7.8 8.0 12.4 10.5 6.0 6.7 6.4 7.4 8.1 8.2 6.9 1.9
12.9 13.1 12.4 12.3 12.4 12.1 11.9 11.7 11.6 12.0 11.5 12.0 12.7 13.0 11.9 12.7 13.3 12.6 12.1 7.5 7.2 9.1 9.5 11.4 8.4 2.8 7.8 8.2 11.8 12.4 10.4 6.5 5.0 6.8 7.9 8.3 9.8 11.1
13.0 13.4 13.1 12.7 13.1 13.4 13.1 12.4 11.1 11.9 12.5 12.4 12.4 12.8 12.1 12.6 13.0 12.8 12.2 12.0 10.2 10.6 8.7 8.2 7.9 8.3 8.2 8.0 11.4 12.8 11.7 9.5 7.2 5.9 4.3 5.8 9.2 12.7
13.3 13.3 13.6 13.5 13.8 14.1 13.8 13.6 13.3 13.1 12.5 12.6 12.9 12.7 12.5 13.3 12.4 12.8 12.8 12.1 10.6 9.7 8.7 10.6 9.4 8.4 7.9 9.5 11.8 12.3 11.7 10.5 9.5 10.7 10.5 4.3 2.3 1.9